Вернуться в каталог

COSMOS 663

АктивенВоенныеPO
NORAD 7349·PAYLOAD·🇷🇺 Russia

Запущен Jun 27, 1974 с Plesetsk Cosmodrome

Loading…

Ближайшие Пролёты (ближайшие 24 часа)

TLE

СвежийSource: Space-Track

Эпоха: Sep 14, 2026, 09:00 UTC

1 07349U 74048A   26257.37569054  .00000052  00000-0  38327-4 0  9991
2 07349  82.9472 108.6005 0025185   4.8498 167.9882 13.75866545620471

Отслеживайте COSMOS 663 в реальном времени с AllMySat

Download on the App Store